Regional Weather Roundup
Issued by NWS

Home | Current Version | Previous Version | Text Only | Print | Product List | Glossary On
Versions: 1 2 3 4 5 6 7 8 9 10 11 12 13 14 15 16 17 18 19 20 21 22 23 24 25 26 27 28 29 30 31 32 33 34 35 36 37 38 39 40 41 42 43 44 45 46 47 48 49 50
000
ASUS43 KDMX 052208
RWRIA

WEATHER ROUNDUP FOR IOWA
NATIONAL WEATHER SERVICE DES MOINES IA
500 PM CDT THU MAY 05 2016

NOTE: "FAIR" INDICATES FEW OR NO CLOUDS BELOW 12,000 FEET WITH NO
SIGNIFICANT WEATHER AND/OR OBSTRUCTIONS TO VISIBILITY.

* - THESE STATIONS ARE NOT NWS STATIONS...THUS NOT UNDER NWS
QUALITY CONTROL.  THEY ALSO DO NOT REPORT WEATHER SUCH
AS PRECIPITATION OR FOG.

IAZ001>003-012>014-020>022-031>034-043>046-052300-
   NORTHWEST IOWA

CITY           SKY/WX    TMP DP  RH WIND       PRES   REMARKS
CARROLL *      SUNNY     75  34  22 W8G17     30.01S
CHEROKEE *     SUNNY     75  41  29 SW9       29.99F
DENISON *      SUNNY     75  37  25 SW6       29.99F
LE MARS *      SUNNY     77  41  27 S6G14     29.99F
ORANGE CITY *  SUNNY     77  43  29 S8        29.99F
SHELDON *      SUNNY     77  37  24 SW8       29.97F
SIOUX CITY     SUNNY     78  48  34 SE14      29.98F
SPENCER        SUNNY     77  37  23 SW9       29.99F
STORM LAKE *   SUNNY     75  34  22 SW9       30.01F
$$

IAZ055>058-069>071-079>083-090>094-052300-
   SOUTHWEST IOWA

CITY           SKY/WX    TMP DP  RH WIND       PRES   REMARKS
ATLANTIC *     SUNNY     73  39  29 SW9       30.02F
AUDUBON *        N/A     75  30  19 CALM      30.03F
CLARINDA *       N/A     73  36  25 MISG      30.05F
COUNCIL BLFS * SUNNY     75  39  27 CALM      30.02F
CRESTON *      SUNNY     70  36  28 CALM      30.05F
HARLAN  *      SUNNY     75  36  23 CALM      30.05F
LAMONI         SUNNY     69  37  30 NW8       30.04F
RED OAK *      SUNNY     73  39  29 SE6       30.03F
SHENANDOAH *   SUNNY     75  34  22 CALM      30.03F
$$

IAZ047>049-059>061-072>074-084-052300-
   CENTRAL IOWA

CITY           SKY/WX    TMP DP  RH WIND       PRES   REMARKS
AMES           SUNNY     72  37  28 MISG      30.01F
ANKENY *       SUNNY     70  36  28 CALM      30.02F
BOONE *        SUNNY     72  34  25 W8        30.01F
CHARITON *     SUNNY     68  32  26 VRB7      30.04F
DES MOINES     MOSUNNY   72  32  23 W5        30.03F
GRINNELL*      SUNNY     70  28  21 W7        30.03F
KNOXVILLE *    SUNNY     68  32  26 NW8       30.03S
MARSHALLTOWN   SUNNY     69  34  27 W5        30.00F
NEWTON *       SUNNY     68  30  24 W7G13     30.02F
PERRY *          N/A     73  32  21 W7        30.02F
$$

IAZ004>006-015-016-023>025-035-036-052300-
   NORTH CENTRAL IOWA

CITY           SKY/WX    TMP DP  RH WIND       PRES   REMARKS
ALGONA *       SUNNY     75  37  25 W10       29.99F
CLARION *      MOSUNNY   73  32  21 SW7G16    30.00S
ESTHERVILLE    SUNNY     75  40  28 W10       29.98F HAZE
FORT DODGE *   SUNNY     73  43  33 W9        30.01F
MASON CITY     SUNNY     73  38  27 SW10      30.00F
FOREST CITY *  SUNNY     72  36  26 W8        29.99F
WEBSTER CITY * SUNNY     73  36  25 SW7G17    29.99F
IOWA FALLS *     N/A     73  34  23 W6        30.01F
$$

IAZ007>011-017>019-026>030-037>042-050>054-066-052300-
   NORTHEAST IOWA

CITY           SKY/WX    TMP DP  RH WIND       PRES   REMARKS
CEDAR RAPIDS   SUNNY     68  37  32 VRB3      30.00F
CHARLES CITY * MOSUNNY   70  30  23 S6        29.99F
CLINTON *      SUNNY     66  40  38 N7        30.01F
DECORAH *      SUNNY     66  34  30 NW10      29.99F
DUBUQUE        SUNNY     65  37  35 N6        30.01F
MONTICELLO *   SUNNY     68  32  26 NW10      30.00F
OELWEIN *      SUNNY     68  30  24 NW10      30.01F
WATERLOO       SUNNY     68  32  26 NW7       30.01F
$$

IAZ064-065-067-068-078-052300-
   EAST CENTRAL IOWA

CITY           SKY/WX    TMP DP  RH WIND       PRES   REMARKS
DAVENPORT      SUNNY     67  34  29 VRB7      30.01F
IOWA CITY      SUNNY     68  33  27 NW9       30.03F
MT. PLEASANT * SUNNY     70  36  28 W6        30.02F
MUSCATINE *    SUNNY     68  36  30 N8G16     30.01F
QUAD CITIES    SUNNY     68  37  32 N8        30.00S
$$

IAZ062-063-075>077-085>089-095>099-052300-
   SOUTHEAST IOWA

CITY           SKY/WX    TMP DP  RH WIND       PRES   REMARKS
BURLINGTON     SUNNY     67  39  35 N8        30.01F
FAIRFIELD *    SUNNY     66  32  28 NW9       30.02F
FORT MADISON * SUNNY     66  39  37 NW7       30.03S
KEOKUK *       SUNNY     66  39  37 VRB5G12   30.02S
OSKALOOSA *      N/A     70  27  19 NW6       30.03F
OTTUMWA        SUNNY     68  36  30 NW7       30.03F
WASHINGTON *   SUNNY     68  32  26 NW10G17   30.03S
$$

ABBREVIATIONS USED IN REMARKS
   TC - TEMPERATURES IN CELSIUS
  WCI - WIND CHILL INDEX
   HX - HEAT INDEX
  VSB - VISIBILITY
$$





USA.gov is the U.S. government's official web portal to all federal, state and local government web resources and services.